Homer, AK

1:23 PM AKST on February 26, 2017 (GMT -0900)
Homer

Weather History for PAHO - June, 2013

Change the Weather History Date:

Sunday, June 23, 2013

  Actual Average Record
Temperature  
Mean Temperature 54 °F -  
Max Temperature 57 °F 57 °F 76 °F (1936)
Min Temperature 50 °F 43 °F 34 °F (1950)
Degree Days  
Heating Degree Days 12    
Growing Degree Days 4 (Base 50)    
Moisture  
Dew Point 43 °F    
Average Humidity 65    
Maximum Humidity 86    
Minimum Humidity 55    
Precipitation  
Precipitation 0.00 in - - ()
Sea Level Pressure  
Sea Level Pressure 29.71 in    
Wind  
Wind Speed 4 mph (SW)    
Max Wind Speed 9 mph    
Max Gust Speed -    
Visibility 10 miles    
Events      
Averages and records for this station are not official NWS values.
T = Trace of Precipitation, MM = Missing Value Source: NWS Daily Summary

Daily Weather History Graph

Daily Weather History Graph

Search for Another Location

Airport or City:

Trip Planner

Search our weather history database for the weather conditions in past years. The results will help you decide how hot, cold, wet, or windy it might be!

Date:

Astronomy

Jun. 23, 2013 Rise Set
Actual Time 4:46 AM AKDT 11:29 PM AKDT
Civil Twilight 3:08 AM AKDT 1:07 AM AKDT
Nautical Twilight Sun does not rise Sun does not rise
Astronomical Twilight Sun does not rise Sun does not rise
Moon 11:16 PM AKDT (6/23) 5:42 AM AKDT (6/23)
Length of Visible Light 21h 58m
Length of Day
18h 43m
Full, 100% of the Moon is Illuminated
Jun 23
Full
Jun 29
Last Quarter
Jul 7
New
Jul 15
First Quarter
Jul 22
Full

Hourly Weather History & Observations

Time (AKDT) Temp. Dew Point Humidity Pressure Visibility Wind Dir Wind Speed Gust Speed Precip Events Conditions
12:53 AM 54.0 °F 41.0 °F 62% 29.77 in 10.0 mi SE 8.1 mph - N/A   Overcast
1:53 AM 53.1 °F 42.1 °F 66% 29.76 in 10.0 mi SE 6.9 mph - 0.00 in   Overcast
2:53 AM 53.1 °F 42.1 °F 66% 29.75 in 10.0 mi East 4.6 mph - N/A   Mostly Cloudy
3:39 AM 53.6 °F 42.8 °F 67% 29.74 in 10.0 mi Calm Calm - 0.00 in   Overcast
3:53 AM 51.1 °F 43.0 °F 74% 29.75 in 10.0 mi Calm Calm - 0.00 in   Overcast
4:53 AM 50.0 °F 44.1 °F 80% 29.73 in 10.0 mi Calm Calm - 0.00 in   Overcast
5:53 AM 53.1 °F 42.1 °F 66% 29.72 in 10.0 mi Calm Calm - N/A   Overcast
6:53 AM 53.1 °F 42.1 °F 66% 29.72 in 10.0 mi Calm Calm - N/A   Overcast
7:53 AM 53.1 °F 43.0 °F 69% 29.71 in 10.0 mi Calm Calm - N/A   Overcast
8:53 AM 54.0 °F 44.1 °F 69% 29.71 in 10.0 mi Calm Calm - N/A   Overcast
9:53 AM 55.0 °F 42.1 °F 62% 29.72 in 10.0 mi Calm Calm - N/A   Mostly Cloudy
10:53 AM 55.0 °F 42.1 °F 62% 29.71 in 10.0 mi ESE 3.5 mph - N/A   Overcast
11:53 AM 55.9 °F 42.1 °F 60% 29.71 in 10.0 mi Calm Calm - N/A   Overcast
12:53 PM 55.9 °F 42.1 °F 60% 29.71 in 10.0 mi Calm Calm - N/A   Mostly Cloudy
1:53 PM 57.9 °F 42.1 °F 56% 29.71 in 10.0 mi Calm Calm - N/A   Overcast
2:53 PM 57.0 °F 42.1 °F 57% 29.71 in 10.0 mi SW 5.8 mph - N/A   Overcast
3:53 PM 57.0 °F 41.0 °F 55% 29.70 in 10.0 mi SW 3.5 mph - N/A   Overcast
4:53 PM 57.0 °F 41.0 °F 55% 29.70 in 10.0 mi SW 3.5 mph - N/A   Overcast
5:53 PM 57.0 °F 41.0 °F 55% 29.70 in 10.0 mi SW 3.5 mph - N/A   Mostly Cloudy
6:53 PM 57.0 °F 41.0 °F 55% 29.69 in 10.0 mi WSW 3.5 mph - N/A   Overcast
7:53 PM 55.9 °F 42.1 °F 60% 29.68 in 10.0 mi West 5.8 mph - N/A   Overcast
8:53 PM 55.9 °F 42.1 °F 60% 29.68 in 10.0 mi WSW 4.6 mph - N/A   Mostly Cloudy
9:53 PM 54.0 °F 46.0 °F 75% 29.67 in 10.0 mi West 5.8 mph - N/A   Overcast
10:53 PM 51.1 °F 46.9 °F 86% 29.67 in 9.0 mi SW 9.2 mph - N/A   Overcast
11:53 PM 50.0 °F 46.0 °F 86% 29.68 in 10.0 mi WSW 6.9 mph - N/A   Overcast